Regional Weather Roundup
Issued by NWS

Home | Current Version | Previous Version | Graphics & Text | Print | Product List | Glossary On
Versions: 1 2 3 4 5 6 7 8 9 10 11 12 13 14 15 16 17 18 19 20 21 22 23 24 25 26 27 28 29 30 31 32 33 34 35 36 37 38 39 40 41 42 43 44 45 46 47 48 49 50
000
ASUS43 KLMK 241202
RWRKY
KENTUCKY REGIONAL WEATHER ROUNDUP
NATIONAL WEATHER SERVICE LOUISVILLE KY
700 AM EST FRI FEB 24 2017

NOTE "FAIR" INDICATES FEW OR NO CLOUDS BELOW 12,000 FEET
WITH NO SIGNIFICANT WEATHER AND/OR OBSTRUCTIONS TO VISIBILITY.

KYZ001>023-026-027-061>063-070>075-241300-
WESTERN AND SOUTH CENTRAL KENTUCKY

CITY           SKY/WX    TMP DP  RH WIND       PRES   REMARKS
PADUCAH        CLEAR     63  55  75 S12G21    29.61S
HENDERSON      CLEAR     63  54  72 S15       29.61F
OWENSBORO      CLEAR     62  56  80 S16       29.65S
HOPKINSVILLE   CLEAR     64  57  78 S9        29.68R
BOWLING GREEN  CLEAR     63  55  75 S12       29.72S
GLASGOW        NOT AVBL
$$

KYZ024-025-028>034-038-045-046-053-241300-
NORTH CENTRAL KENTUCKY

CITY           SKY/WX    TMP DP  RH WIND       PRES   REMARKS
LOUISVILLE/SDF MOCLDY    63  53  70 S8        29.69F
LOUISVILLE/LOU MOCLDY    63  54  72 S8        29.70S
FORT KNOX      CLOUDY    62  55  78 S15       29.68F
$$

KYZ035>037-039>044-047>052-055>060-089>105-241300-
NORTHEAST KENTUCKY

CITY           SKY/WX    TMP DP  RH WIND       PRES   REMARKS
LEXINGTON      CLEAR     58  50  75 S12       29.75F
COVINGTON      MOCLDY    59  53  80 S13       29.70S
FRANKFORT      CLEAR     58  50  75 S7        29.72F
$$

KYZ054-064>069-076>088-106>120-241300-
SOUTHEAST KENTUCKY

CITY           SKY/WX    TMP DP  RH WIND       PRES   REMARKS
JACKSON        CLEAR     55  48  77 SW3       29.81F
LONDON         CLEAR     58  47  66 S6        29.81S
SOMERSET       CLEAR     57  46  67 S6        29.80F
MIDDLESBORO    CLEAR     44  44 100 CALM      29.86S FOG
MONTICELLO     SUNNY     62  51  67 S8G16     29.80F
$$




USA.gov is the U.S. government's official web portal to all federal, state and local government web resources and services.